[[{"header":{"parameterUnit":"m.s-1","parameterCategory":1,"la1":30.2991,"la2":30.254,"lo1":-89.0895,"lo2":-89.0444,"dy":0.0017,"dx":0.0017,"nx":28,"ny":28,"refTime":"2024-12-14T03:00:00:Z","depth":0,"parameterNumber":2,"parameterNumberName":"U-component_of_WINDS"},"data":[0,0,0,0,0,0,0,0,0,0,0,0,0,0,0,0,0,0,0,0,0,0,0,0,0,0,0,0,0,0,0,0,0,0,0,0,0,0,0,0,0,0,0,0,0,0,0,0,0,0,0,0,0,0,0,0,0,0,-6.5883,-6.5884,0,-6.5947,-6.5947,-6.5948,-6.5783,-6.5778,-6.5773,-6.5768,-6.5835,-6.5841,-6.5848,0,0,0,0,0,0,0,0,0,0,0,0,0,-6.5621,-6.5626,-6.5883,-6.5884,-6.5885,-6.5947,-6.5948,-6.5948,-6.5784,-6.5778,-6.5772,-6.5766,-6.5833,-6.5841,-6.5849,0,0,0,0,0,0,0,0,0,0,0,0,0,-6.5715,-6.5628,-6.5883,-6.581,-6.5804,-6.5946,-6.5948,-6.5949,-6.5786,-6.5778,-6.577,-6.5763,-6.583,-6.584,-6.585,-6.6066,0,0,-6.588,-6.5884,0,0,0,0,0,0,0,0,-6.571,-6.5724,-6.582,-6.5816,-6.5809,-6.5849,-6.5879,-6.5988,-6.5788,-6.5793,-6.5768,-6.5759,-6.5846,-6.5854,-6.5883,-6.6069,-6.6072,-6.5881,-6.5887,-6.5891,-6.5894,0,0,0,0,0,0,0,-6.5703,-6.5721,-6.5908,-6.5822,-6.5815,-6.5775,-6.578,-6.5899,-6.5862,-6.5792,-6.578,-6.579,-6.5842,-6.5874,-6.5884,-6.6073,-6.588,-6.5889,-6.5895,-6.5899,-6.6438,-6.6446,0,0,0,0,0,0,-6.5706,-6.5716,-6.5906,-6.591,-6.5739,-6.5786,-6.5791,-6.5844,-6.586,-6.5855,-6.5796,-6.5782,-6.5861,-6.5872,-6.5885,-6.6138,-6.5891,-6.59,-6.5906,-6.6429,-6.6439,-6.6449,0,0,0,0,0,0,-6.5701,-6.5724,-6.5904,-6.581,-6.583,-6.5799,-6.5859,-6.585,-6.5882,-6.5864,-6.5856,-6.5836,-6.5855,-6.5871,-6.6022,-6.6138,-6.5905,-6.5914,-6.6419,-6.6432,-6.6444,-6.6647,0,0,0,0,0,0,-6.5694,-6.5724,-6.5805,-6.5813,-6.5836,-6.604,-6.5867,-6.5856,-6.5899,-6.5881,-6.5899,-6.5895,-6.585,-6.6008,-6.6032,-6.6148,-6.5921,-6.6409,-6.6425,-6.644,-6.663,-6.6665,-6.6696,0,0,0,0,0,-6.5685,-6.586,-6.581,-6.5834,-6.5937,-6.6047,-6.6059,-6.6004,-6.5909,-6.5991,-6.5979,-6.5894,-6.6122,-6.6025,-6.605,-6.6171,-6.6401,-6.6421,-6.6439,-6.6616,-6.6659,-6.6695,0,0,0,0,0,0,-6.5868,-6.586,-6.5804,-6.5987,-6.6019,-6.6018,-6.612,-6.6052,-6.6111,-6.6092,-6.6021,-6.6027,-6.619,-6.6195,-6.6087,-6.638,-6.6245,-6.627,-6.6371,-6.6412,-6.6444,-6.6439,-6.593,0,0,0,0,0,-6.5929,-6.6018,-6.6007,-6.617,-6.6188,-6.6152,-6.6198,-6.6152,-6.6182,-6.6195,-6.6194,-6.6227,-6.6305,-6.6359,-6.643,-6.663,-6.6632,-6.6726,-6.6759,-6.6786,-6.6808,-6.6913,-6.6955,-6.651,-6.651,-6.651,0,0,-6.6057,-6.6064,-6.6125,-6.6207,-6.6225,-6.632,-6.6164,-6.6271,-6.634,-6.6211,-6.6353,-6.6354,-6.6385,-6.6562,-6.6639,-6.6571,-6.6931,-6.681,-6.6831,-6.6839,-6.6937,-6.6979,-6.7016,-6.6523,-6.6521,-6.6519,0,0,-6.6338,-6.6353,-6.6489,-6.6511,-6.6542,-6.6516,-6.655,-6.656,-6.6555,-6.6696,-6.6601,-6.6683,-6.682,-6.6846,-6.6878,-6.7169,-6.7093,-6.7194,-6.7365,-6.7469,-6.7504,-6.7534,-6.7638,-6.7676,-6.7217,-6.7217,-6.7217,0,-6.6493,-6.6631,-6.6568,-6.6681,-6.672,-6.6607,-6.6745,-6.6769,-6.6823,-6.6852,-6.6775,-6.6944,-6.6958,-6.7138,-6.7209,-6.7238,-6.7274,-6.7192,-6.7504,-6.7534,-6.7562,-6.7659,-6.7699,-6.7229,-6.7228,-6.7227,-6.7225,0,-6.682,-6.6917,-6.7024,-6.7077,-6.7128,-6.7253,-6.7209,-6.7268,-6.7219,-6.7202,-6.7347,-6.7359,-6.743,-6.747,-6.7423,-6.7644,-6.7601,-6.7515,-6.7378,-6.7617,-6.7708,-6.7745,-6.7246,-6.7242,-6.7239,-6.7236,0,0,-6.7218,-6.7234,-6.7274,-6.7297,-6.7322,-6.7396,-6.7516,-6.7586,-6.7637,-6.7678,-6.7777,-6.7895,-6.7816,-6.7852,-6.7807,-6.7898,-6.8127,-6.7801,-6.78,-6.7861,-6.8371,-6.8435,-6.8479,-6.8077,-6.8084,-6.8089,-6.8368,0,-6.7494,-6.7699,-6.7646,-6.785,-6.7939,-6.7834,-6.7938,-6.7965,-6.7953,-6.8026,-6.8012,-6.8097,-6.7986,-6.8007,-6.8093,-6.8081,-6.8229,-6.8061,-6.8168,-6.8173,-6.8163,-6.8526,-6.8594,-6.8856,-6.8403,-6.8409,-6.8413,0,-6.7844,-6.7898,-6.8111,-6.8121,-6.8156,-6.8251,-6.831,-6.8382,-6.8411,-6.8395,-6.8436,-6.8372,-6.849,-6.8353,-6.8515,-6.8402,-6.8443,-6.8444,-6.8453,-6.846,-6.8307,-6.8543,-6.8939,-6.8978,-6.8468,-6.8464,-6.846,0,-6.8112,-6.8237,-6.8381,-6.8403,-6.8419,-6.8488,-6.8498,-6.8519,-6.8564,-6.8616,-6.8644,-6.871,-6.8746,-6.8799,-6.8755,-6.8659,-6.8924,-6.8783,-6.8914,-6.8916,-6.8974,-6.8971,-6.9381,-6.9002,-6.9002,-6.9001,-6.9,0,-6.8426,-6.8561,-6.8501,-6.8589,-6.8737,-6.8675,-6.8822,-6.882,-6.884,-6.8926,-6.8839,-6.8921,-6.8858,-6.8936,-6.8903,-6.9042,-6.9059,-6.9049,-6.9039,-6.9057,-6.9058,-6.9082,-6.9063,-6.9011,-6.9009,-6.9007,-6.9005,0,-6.875,-6.8716,-6.8865,-6.8867,-6.8871,-6.898,-6.8982,-6.9064,-6.9045,-6.9155,-6.9177,-6.9148,-6.9234,-6.9196,-6.9287,-6.9264,-6.9443,-6.9408,-6.9433,-6.9424,-6.9557,-6.9545,-6.9997,-7.0053,-6.9639,-6.9643,-6.9646,0,-6.8952,-6.9053,-6.9067,-6.9118,-6.9134,-6.9217,-6.9263,-6.9206,-6.9257,-6.9297,-6.9374,-6.9453,-6.9513,-6.9656,-6.9643,-6.9712,-6.9678,-6.9832,-6.9688,-6.9703,-6.9679,-6.9674,-6.9683,-6.986,-6.9865,-6.9869,-6.9872,0,-6.9315,-6.9293,-6.9361,-6.9425,-6.9481,-6.9528,-6.9568,-6.9615,-6.9559,-6.9621,-6.9708,-6.9755,-6.9847,-6.9927,-6.9988,-6.9997,-6.9927,-6.9918,-6.9952,-6.9971,-6.9981,-6.9976,-6.9511,-6.9908,-6.9904,-6.9901,-6.99,-6.9898,-6.9583,-6.9668,-6.9691,-6.977,-6.9793,-6.9833,-6.9909,-6.99,-6.9971,-7.0042,-7.0004,-7.0106,-7.0131,-7.0206,-7.0226,-7.0304,-7.0243,-7.0293,-7.0305,-7.0318,-7.0336,-6.9969,-7.0315,-7.0314,-7.0313,-7.0312,-7.0311,0,-6.9941,-6.995,-7.0024,-7.0081,-7.0144,-7.0071,-7.0111,-7.0168,-7.0259,-7.0289,-7.0349,-7.0449,-7.0526,-7.0519,-7.0589,-7.0654,-7.0623,-7.0674,-7.0668,-7.0672,-7.0386,-7.0349,-7.0698,-7.0698,-7.0698,-7.0698,-7.0697,-7.0697,-7.0134,-7.0273,-7.0253,-7.0403,-7.0411,-7.051,-7.0539,-7.0574,-7.0598,-7.0713,-7.0776,-7.0771,-7.0786,-7.0857,-7.0924,-7.092,-7.0949,-7.1013,-7.0997,-7.073,-7.0692,-7.0655,-7.062,-7.102,-7.102,-7.1275,-7.1278,-7.128]},{"header":{"parameterUnit":"m.s-1","parameterCategory":1,"la1":30.2991,"la2":30.254,"lo1":-89.0895,"lo2":-89.0444,"dy":0.0017,"dx":0.0017,"nx":28,"ny":28,"refTime":"2024-12-14T03:00:00:Z","depth":0,"parameterNumber":3,"parameterNumberName":"V-component_of_WINDS"},"data":[0,0,0,0,0,0,0,0,0,0,0,0,0,0,0,0,0,0,0,0,0,0,0,0,0,0,0,0,0,0,0,0,0,0,0,0,0,0,0,0,0,0,0,0,0,0,0,0,0,0,0,0,0,0,0,0,0,0,-1.6967,-1.6968,0,-1.6998,-1.6998,-1.6999,-1.6977,-1.6976,-1.6976,-1.6975,-1.7007,-1.7009,-1.7011,0,0,0,0,0,0,0,0,0,0,0,0,0,-1.6889,-1.6891,-1.6967,-1.6968,-1.6968,-1.6998,-1.6998,-1.6999,-1.6978,-1.6976,-1.6975,-1.6974,-1.7007,-1.7009,-1.7011,0,0,0,0,0,0,0,0,0,0,0,0,0,-1.6922,-1.6891,-1.6967,-1.6961,-1.6961,-1.6998,-1.6998,-1.6999,-1.6978,-1.6976,-1.6975,-1.6974,-1.7006,-1.7008,-1.7011,-1.7056,0,0,-1.7019,-1.702,0,0,0,0,0,0,0,0,-1.692,-1.6925,-1.6961,-1.6961,-1.6961,-1.6982,-1.6983,-1.7018,-1.6978,-1.6971,-1.6975,-1.6973,-1.7,-1.7003,-1.7012,-1.7058,-1.7059,-1.7019,-1.7021,-1.7022,-1.7023,0,0,0,0,0,0,0,-1.6918,-1.6923,-1.6979,-1.6962,-1.6962,-1.6956,-1.6959,-1.6989,-1.6994,-1.6972,-1.697,-1.6974,-1.7,-1.701,-1.7013,-1.706,-1.7019,-1.7022,-1.7023,-1.7024,-1.7142,-1.7143,0,0,0,0,0,0,-1.6916,-1.6922,-1.6978,-1.698,-1.6937,-1.6959,-1.6962,-1.6977,-1.6993,-1.6994,-1.6976,-1.6973,-1.7006,-1.701,-1.7014,-1.7066,-1.7022,-1.7025,-1.7026,-1.714,-1.7142,-1.7144,0,0,0,0,0,0,-1.6915,-1.6921,-1.6977,-1.6951,-1.6957,-1.6962,-1.6979,-1.6978,-1.6988,-1.6996,-1.6996,-1.6985,-1.7005,-1.701,-1.7045,-1.7067,-1.7026,-1.7028,-1.7139,-1.7141,-1.7143,-1.7172,0,0,0,0,0,0,-1.6912,-1.6921,-1.6938,-1.6951,-1.6959,-1.7008,-1.698,-1.698,-1.6993,-1.699,-1.7005,-1.7006,-1.7004,-1.7041,-1.7048,-1.707,-1.703,-1.7137,-1.714,-1.7142,-1.7169,-1.7175,-1.718,0,0,0,0,0,-1.691,-1.6946,-1.6939,-1.6946,-1.6981,-1.701,-1.7014,-1.7011,-1.6995,-1.7012,-1.7016,-1.7005,-1.7064,-1.7045,-1.7052,-1.7076,-1.7135,-1.7139,-1.7142,-1.7167,-1.7174,-1.718,0,0,0,0,0,0,-1.6937,-1.6948,-1.694,-1.6982,-1.6995,-1.7006,-1.7028,-1.7019,-1.7037,-1.7034,-1.703,-1.7033,-1.707,-1.7076,-1.7056,-1.7119,-1.7097,-1.7102,-1.7113,-1.712,-1.7126,-1.7123,-1.7032,0,0,0,0,0,-1.6947,-1.697,-1.6978,-1.7014,-1.7021,-1.7023,-1.7036,-1.7032,-1.7046,-1.7051,-1.7059,-1.7072,-1.7093,-1.7107,-1.7127,-1.7171,-1.7173,-1.719,-1.7195,-1.72,-1.7204,-1.7225,-1.7233,-1.7155,-1.7155,-1.7155,0,0,-1.697,-1.6979,-1.6993,-1.702,-1.7029,-1.7052,-1.7028,-1.7054,-1.7071,-1.7055,-1.7088,-1.7094,-1.7109,-1.7148,-1.7165,-1.7154,-1.7226,-1.7204,-1.7208,-1.7209,-1.723,-1.7237,-1.7243,-1.7158,-1.7157,-1.7157,0,0,-1.7022,-1.7032,-1.7062,-1.7071,-1.7086,-1.7087,-1.7094,-1.7106,-1.7109,-1.7142,-1.713,-1.715,-1.7188,-1.7198,-1.7208,-1.7262,-1.7252,-1.7269,-1.7298,-1.7319,-1.7325,-1.733,-1.7348,-1.7355,-1.7274,-1.7274,-1.7274,0,-1.7048,-1.7082,-1.7078,-1.7104,-1.7116,-1.7102,-1.7132,-1.7141,-1.7162,-1.717,-1.7158,-1.7202,-1.7212,-1.7252,-1.7265,-1.7274,-1.7281,-1.7267,-1.7324,-1.7329,-1.7334,-1.7351,-1.7358,-1.7275,-1.7275,-1.7275,-1.7275,0,-1.7113,-1.7136,-1.7159,-1.7178,-1.7192,-1.722,-1.722,-1.7234,-1.7229,-1.7231,-1.7265,-1.7275,-1.7296,-1.7305,-1.7301,-1.7345,-1.7337,-1.7325,-1.7302,-1.7344,-1.7359,-1.7366,-1.7278,-1.7277,-1.7277,-1.7276,0,0,-1.7183,-1.7198,-1.7206,-1.7214,-1.7228,-1.7247,-1.7273,-1.7293,-1.7305,-1.732,-1.7341,-1.7372,-1.736,-1.7372,-1.7369,-1.7387,-1.7428,-1.7372,-1.7372,-1.7381,-1.7474,-1.7482,-1.749,-1.7421,-1.7423,-1.7424,-1.7472,0,-1.7235,-1.7281,-1.7277,-1.7321,-1.7342,-1.7328,-1.7351,-1.7362,-1.7365,-1.7383,-1.7386,-1.7407,-1.7391,-1.7397,-1.7415,-1.7419,-1.7446,-1.7416,-1.7441,-1.7441,-1.7436,-1.7498,-1.7508,-1.7553,-1.7478,-1.748,-1.748,0,-1.7301,-1.7317,-1.7362,-1.7371,-1.738,-1.7401,-1.7418,-1.7436,-1.7447,-1.7448,-1.746,-1.7453,-1.748,-1.7457,-1.7493,-1.7472,-1.7482,-1.7485,-1.7487,-1.7488,-1.7463,-1.75,-1.7568,-1.7574,-1.749,-1.749,-1.7489,0,-1.7346,-1.7378,-1.7409,-1.7416,-1.7428,-1.7443,-1.7449,-1.7459,-1.7471,-1.7486,-1.7493,-1.7511,-1.7521,-1.7535,-1.7533,-1.7517,-1.7569,-1.7547,-1.7569,-1.7569,-1.758,-1.7579,-1.7649,-1.7589,-1.7589,-1.7589,-1.7589,0,-1.7403,-1.7431,-1.7429,-1.7448,-1.7478,-1.7473,-1.7503,-1.7508,-1.7517,-1.7535,-1.7526,-1.7544,-1.7541,-1.7559,-1.7558,-1.7586,-1.7591,-1.7592,-1.7591,-1.7592,-1.7592,-1.7598,-1.7594,-1.7591,-1.759,-1.759,-1.7589,0,-1.7458,-1.7458,-1.749,-1.7498,-1.7501,-1.7523,-1.753,-1.7547,-1.7549,-1.7573,-1.7578,-1.758,-1.7601,-1.76,-1.7624,-1.7623,-1.7658,-1.7654,-1.7653,-1.7652,-1.7674,-1.7671,-1.7749,-1.7758,-1.7694,-1.7694,-1.7695,0,-1.7494,-1.7515,-1.7525,-1.7536,-1.7543,-1.7562,-1.7573,-1.7569,-1.7582,-1.7596,-1.7611,-1.763,-1.7645,-1.7679,-1.7682,-1.77,-1.7696,-1.7722,-1.7698,-1.7698,-1.7694,-1.7692,-1.7694,-1.7726,-1.7727,-1.7727,-1.7728,0,-1.7557,-1.7555,-1.7572,-1.7588,-1.7602,-1.7614,-1.7626,-1.7636,-1.7633,-1.7648,-1.7668,-1.7679,-1.7703,-1.7721,-1.7738,-1.7744,-1.7735,-1.7735,-1.7741,-1.7741,-1.7739,-1.7739,-1.7664,-1.7733,-1.7733,-1.7732,-1.7732,-1.7732,-1.7602,-1.7619,-1.7629,-1.7647,-1.7655,-1.7666,-1.7682,-1.7685,-1.7701,-1.7719,-1.7716,-1.7738,-1.7748,-1.777,-1.7777,-1.7794,-1.7785,-1.7794,-1.7796,-1.7798,-1.7799,-1.7738,-1.7797,-1.7797,-1.7797,-1.7797,-1.7797,0,-1.7664,-1.7669,-1.7685,-1.7701,-1.7715,-1.7705,-1.7717,-1.773,-1.7749,-1.7759,-1.7774,-1.7796,-1.7814,-1.7819,-1.7836,-1.7848,-1.7845,-1.7853,-1.7851,-1.7852,-1.7808,-1.78,-1.7856,-1.7856,-1.7856,-1.7856,-1.7855,-1.7855,-1.7697,-1.7725,-1.7724,-1.7755,-1.776,-1.7781,-1.7788,-1.7798,-1.7805,-1.7831,-1.7845,-1.7848,-1.7855,-1.7873,-1.7888,-1.7889,-1.7895,-1.7905,-1.7904,-1.7862,-1.7856,-1.785,-1.7843,-1.7907,-1.7907,-1.7947,-1.7948,-1.7948]}]]